Time,TemperatureF,DewpointF,PressureIn,WindDirection,WindDirectionDegrees,WindSpeedMPH,WindSpeedGustMPH,Humidity,HourlyPrecipIn,Conditions,Clouds,dailyrainin,SoftwareType,DateUTC
2013-04-24 00:00:00,43.0,40.3,30.21,NNW,338,0.4,0.4,90,0.00,,,0.00,WUHU216HW,2013-04-24 04:00:00,
2013-04-24 00:01:00,43.0,40.3,30.21,NNW,338,0.4,0.4,90,0.00,,,0.00,WUHU216HW,2013-04-24 04:01:00,
2013-04-24 00:06:00,43.0,40.3,30.20,East,90,0.4,1.3,90,0.00,,,0.00,WUHU216HW,2013-04-24 04:06:00,
2013-04-24 00:11:00,43.0,40.3,30.20,NNE,23,1.1,1.3,90,0.00,,,0.00,WUHU216HW,2013-04-24 04:11:00,
2013-04-24 00:16:00,43.0,40.3,30.20,North,0,1.3,2.0,90,0.00,,,0.00,WUHU216HW,2013-04-24 04:16:00,
2013-04-24 00:21:00,43.0,40.3,30.20,NE,45,0.4,2.0,90,0.00,,,0.00,WUHU216HW,2013-04-24 04:21:00,
2013-04-24 00:26:00,43.0,40.3,30.19,NNW,338,0.4,1.6,90,0.00,,,0.00,WUHU216HW,2013-04-24 04:26:00,
2013-04-24 00:31:00,43.0,40.3,30.19,ESE,113,0.7,1.6,90,0.00,,,0.00,WUHU216HW,2013-04-24 04:31:00,
2013-04-24 00:36:00,43.0,40.3,30.19,NE,45,1.1,1.6,90,0.00,,,0.00,WUHU216HW,2013-04-24 04:36:00,
2013-04-24 00:41:00,43.0,40.3,30.18,ESE,113,1.8,2.9,90,0.00,,,0.00,WUHU216HW,2013-04-24 04:41:00,
2013-04-24 00:46:00,43.0,40.3,30.17,East,90,2.7,2.9,90,0.00,,,0.00,WUHU216HW,2013-04-24 04:46:00,
2013-04-24 00:51:00,43.0,40.3,30.16,NE,45,1.3,2.7,90,0.00,,,0.00,WUHU216HW,2013-04-24 04:51:00,
2013-04-24 00:56:00,43.0,40.3,30.16,ENE,68,1.1,4.7,90,0.00,,,0.00,WUHU216HW,2013-04-24 04:56:00,
2013-04-24 01:01:00,43.0,40.6,30.15,ENE,68,0.9,4.7,91,0.00,,,0.00,WUHU216HW,2013-04-24 05:01:00,
2013-04-24 01:06:00,43.0,40.6,30.14,NNW,338,1.6,2.7,91,0.00,,,0.00,WUHU216HW,2013-04-24 05:06:00,
2013-04-24 01:11:00,43.2,40.8,30.15,East,90,0.4,1.6,91,0.00,,,0.00,WUHU216HW,2013-04-24 05:11:00,
2013-04-24 01:16:00,43.2,40.8,30.14,SE,135,1.8,1.8,91,0.00,,,0.00,WUHU216HW,2013-04-24 05:16:00,
2013-04-24 01:21:00,43.2,40.5,30.14,East,90,1.3,2.5,90,0.00,,,0.00,WUHU216HW,2013-04-24 05:21:00,
2013-04-24 01:26:00,43.2,40.5,30.13,NNE,23,0.7,2.5,90,0.00,,,0.00,WUHU216HW,2013-04-24 05:26:00,
2013-04-24 01:31:00,43.2,40.5,30.13,North,0,1.6,2.7,90,0.00,,,0.00,WUHU216HW,2013-04-24 05:31:00,
2013-04-24 01:36:00,43.2,40.5,30.13,NE,45,2.0,4.0,90,0.00,,,0.00,WUHU216HW,2013-04-24 05:36:00,
2013-04-24 01:41:00,43.4,40.7,30.12,ENE,68,1.8,4.0,90,0.00,,,0.00,WUHU216HW,2013-04-24 05:41:00,
2013-04-24 01:46:00,43.4,40.7,30.12,NNW,338,0.2,2.0,90,0.00,,,0.00,WUHU216HW,2013-04-24 05:46:00,
2013-04-24 01:51:00,43.6,40.9,30.12,North,0,1.3,4.9,90,0.00,,,0.00,WUHU216HW,2013-04-24 05:51:00,
2013-04-24 01:56:00,43.6,40.9,30.11,WSW,248,3.4,4.9,90,0.00,,,0.00,WUHU216HW,2013-04-24 05:56:00,
2013-04-24 02:01:00,43.6,40.9,30.11,North,0,1.1,3.4,90,0.00,,,0.00,WUHU216HW,2013-04-24 06:01:00,
2013-04-24 02:06:00,43.6,40.9,30.10,NE,45,1.1,3.4,90,0.00,,,0.00,WUHU216HW,2013-04-24 06:06:00,
2013-04-24 02:11:00,43.6,40.9,30.10,NNE,23,1.1,2.0,90,0.00,,,0.00,WUHU216HW,2013-04-24 06:11:00,
2013-04-24 02:16:00,43.6,40.9,30.10,NW,315,0.9,2.0,90,0.00,,,0.00,WUHU216HW,2013-04-24 06:16:00,
2013-04-24 02:21:00,43.6,40.9,30.09,North,0,1.8,1.8,90,0.00,,,0.00,WUHU216HW,2013-04-24 06:21:00,
2013-04-24 02:26:00,43.6,40.9,30.09,NNW,338,1.1,1.8,90,0.00,,,0.00,WUHU216HW,2013-04-24 06:26:00,
2013-04-24 02:31:00,43.6,40.9,30.09,SE,135,2.2,2.5,90,0.00,,,0.00,WUHU216HW,2013-04-24 06:31:00,
2013-04-24 02:36:00,43.6,40.9,30.08,NE,45,0.9,2.5,90,0.00,,,0.00,WUHU216HW,2013-04-24 06:36:00,
2013-04-24 02:41:00,43.6,40.9,30.08,North,0,3.4,3.4,90,0.00,,,0.00,WUHU216HW,2013-04-24 06:41:00,
2013-04-24 02:46:00,43.6,40.9,30.08,North,0,2.9,3.4,90,0.00,,,0.00,WUHU216HW,2013-04-24 06:46:00,
2013-04-24 02:51:00,43.6,40.9,30.08,NNE,23,2.5,3.4,90,0.00,,,0.00,WUHU216HW,2013-04-24 06:51:00,
2013-04-24 02:56:00,43.6,40.9,30.08,NNE,23,1.6,3.1,90,0.00,,,0.00,WUHU216HW,2013-04-24 06:56:00,
2013-04-24 03:01:00,43.6,40.9,30.08,SW,225,3.4,3.4,90,0.00,,,0.00,WUHU216HW,2013-04-24 07:01:00,
2013-04-24 03:06:00,43.6,40.9,30.08,NW,315,1.3,3.4,90,0.00,,,0.00,WUHU216HW,2013-04-24 07:06:00,
2013-04-24 03:11:00,43.6,40.9,30.08,NNW,338,2.5,3.4,90,0.00,,,0.00,WUHU216HW,2013-04-24 07:11:00,
2013-04-24 03:16:00,43.6,40.9,30.08,North,0,0.2,2.5,90,0.00,,,0.00,WUHU216HW,2013-04-24 07:16:00,
2013-04-24 03:21:00,43.6,40.9,30.08,SSE,158,0.4,2.5,90,0.00,,,0.00,WUHU216HW,2013-04-24 07:21:00,
2013-04-24 03:26:00,43.6,40.6,30.08,East,90,0.7,2.5,89,0.00,,,0.00,WUHU216HW,2013-04-24 07:26:00,
2013-04-24 03:31:00,43.6,40.6,30.08,NNE,23,0.4,2.5,89,0.00,,,0.00,WUHU216HW,2013-04-24 07:31:00,
2013-04-24 03:36:00,43.6,40.6,30.08,NNE,23,1.1,1.1,89,0.00,,,0.00,WUHU216HW,2013-04-24 07:36:00,
2013-04-24 03:41:00,43.6,40.6,30.08,NE,45,2.2,2.2,89,0.00,,,0.00,WUHU216HW,2013-04-24 07:41:00,
2013-04-24 03:46:00,43.6,40.9,30.07,NW,315,1.1,2.2,90,0.00,,,0.00,WUHU216HW,2013-04-24 07:46:00,
2013-04-24 03:51:00,43.6,40.6,30.07,NNE,23,0.7,2.2,89,0.00,,,0.00,WUHU216HW,2013-04-24 07:51:00,
2013-04-24 03:56:00,43.6,40.9,30.08,East,90,0.4,1.1,90,0.00,,,0.00,WUHU216HW,2013-04-24 07:56:00,
2013-04-24 04:01:00,43.6,40.6,30.07,NNW,338,1.1,1.1,89,0.00,,,0.00,WUHU216HW,2013-04-24 08:01:00,
2013-04-24 04:06:00,43.6,40.6,30.07,NNW,338,2.2,2.2,89,0.00,,,0.00,WUHU216HW,2013-04-24 08:06:00,
2013-04-24 04:11:00,43.6,40.6,30.07,SW,225,1.1,2.2,89,0.00,,,0.00,WUHU216HW,2013-04-24 08:11:00,
2013-04-24 04:16:00,43.6,40.9,30.07,NNW,338,0.4,2.0,90,0.00,,,0.00,WUHU216HW,2013-04-24 08:16:00,
2013-04-24 04:21:00,43.6,40.9,30.07,SW,225,1.3,2.0,90,0.00,,,0.00,WUHU216HW,2013-04-24 08:21:00,
2013-04-24 04:26:00,43.6,40.9,30.06,North,0,0.7,1.3,90,0.00,,,0.00,WUHU216HW,2013-04-24 08:26:00,
2013-04-24 04:31:00,43.7,40.8,30.06,North,0,2.5,2.5,89,0.00,,,0.00,WUHU216HW,2013-04-24 08:31:00,
2013-04-24 04:36:00,43.7,40.8,30.06,North,0,2.5,2.5,89,0.00,,,0.00,WUHU216HW,2013-04-24 08:36:00,
2013-04-24 04:56:00,43.7,40.8,30.06,East,90,0.4,0.4,89,0.00,,,0.00,WUHU216HW,2013-04-24 08:56:00,
2013-04-24 05:01:00,43.7,41.0,30.06,North,0,1.1,1.1,90,0.00,,,0.00,WUHU216HW,2013-04-24 09:01:00,
2013-04-24 05:06:00,43.6,40.9,30.06,NNW,338,0.4,1.1,90,0.00,,,0.00,WUHU216HW,2013-04-24 09:06:00,
2013-04-24 05:11:00,43.6,40.9,30.06,NE,45,0.9,1.1,90,0.00,,,0.00,WUHU216HW,2013-04-24 09:11:00,
2013-04-24 05:16:00,43.6,40.9,30.06,NE,45,1.8,1.8,90,0.00,,,0.00,WUHU216HW,2013-04-24 09:16:00,
2013-04-24 05:21:00,43.6,40.9,30.05,South,180,0.7,1.8,90,0.00,,,0.00,WUHU216HW,2013-04-24 09:21:00,
2013-04-24 05:26:00,43.6,40.9,30.05,NNE,23,0.4,1.8,90,0.00,,,0.00,WUHU216HW,2013-04-24 09:26:00,
2013-04-24 05:31:00,43.6,40.9,30.05,NNW,338,4.9,4.9,90,0.00,,,0.00,WUHU216HW,2013-04-24 09:31:00,
2013-04-24 05:36:00,43.6,40.9,30.05,SSW,203,1.3,4.9,90,0.00,,,0.00,WUHU216HW,2013-04-24 09:36:00,
2013-04-24 05:41:00,43.6,40.9,30.05,South,180,0.7,4.9,90,0.00,,,0.00,WUHU216HW,2013-04-24 09:41:00,
2013-04-24 05:46:00,43.6,40.9,30.05,SW,225,1.1,1.1,90,0.00,,,0.00,WUHU216HW,2013-04-24 09:46:00,
2013-04-24 05:51:00,43.6,40.9,30.05,North,0,2.7,2.7,90,0.00,,,0.00,WUHU216HW,2013-04-24 09:51:00,
2013-04-24 05:56:00,43.6,40.9,30.05,North,0,2.7,2.7,90,0.00,,,0.00,WUHU216HW,2013-04-24 09:56:00,
2013-04-24 06:01:00,43.6,40.9,30.05,SE,135,0.7,2.7,90,0.00,,,0.00,WUHU216HW,2013-04-24 10:01:00,
2013-04-24 06:06:00,43.6,40.9,30.05,NNW,338,1.8,1.8,90,0.00,,,0.00,WUHU216HW,2013-04-24 10:06:00,
2013-04-24 06:11:00,43.6,40.9,30.06,NE,45,2.5,2.5,90,0.00,,,0.00,WUHU216HW,2013-04-24 10:11:00,
2013-04-24 06:16:00,43.7,41.0,30.06,SSW,203,1.1,2.5,90,0.00,,,0.00,WUHU216HW,2013-04-24 10:16:00,
2013-04-24 06:21:00,43.7,41.0,30.06,SE,135,1.1,1.6,90,0.00,,,0.00,WUHU216HW,2013-04-24 10:21:00,
2013-04-24 06:26:00,43.9,41.2,30.05,NNE,23,1.8,1.8,90,0.00,,,0.00,WUHU216HW,2013-04-24 10:26:00,
2013-04-24 06:31:00,43.9,41.2,30.06,SE,135,1.8,1.8,90,0.00,,,0.00,WUHU216HW,2013-04-24 10:31:00,
2013-04-24 06:36:00,43.9,41.2,30.06,North,0,1.6,1.8,90,0.00,,,0.00,WUHU216HW,2013-04-24 10:36:00,
2013-04-24 06:41:00,43.9,41.2,30.06,NNE,23,0.7,1.8,90,0.00,,,0.00,WUHU216HW,2013-04-24 10:41:00,
2013-04-24 06:46:00,43.9,41.2,30.06,WSW,248,1.1,1.1,90,0.00,,,0.00,WUHU216HW,2013-04-24 10:46:00,
2013-04-24 06:51:00,44.1,41.4,30.06,East,90,0.0,1.1,90,0.00,,,0.00,WUHU216HW,2013-04-24 10:51:00,
2013-04-24 06:56:00,44.1,41.4,30.06,ENE,68,1.1,1.1,90,0.00,,,0.00,WUHU216HW,2013-04-24 10:56:00,
2013-04-24 07:01:00,44.1,41.4,30.06,NNE,23,2.5,3.8,90,0.00,,,0.00,WUHU216HW,2013-04-24 11:01:00,
2013-04-24 07:06:00,44.1,41.4,30.06,WSW,248,0.9,3.8,90,0.00,,,0.00,WUHU216HW,2013-04-24 11:06:00,
2013-04-24 07:11:00,44.3,41.3,30.06,NNE,23,2.7,2.7,89,0.00,,,0.00,WUHU216HW,2013-04-24 11:11:00,
2013-04-24 07:16:00,44.3,41.3,30.05,NW,315,0.2,2.7,89,0.00,,,0.00,WUHU216HW,2013-04-24 11:16:00,
2013-04-24 07:21:00,44.3,41.6,30.05,ENE,68,0.4,0.7,90,0.00,,,0.00,WUHU216HW,2013-04-24 11:21:00,
2013-04-24 07:26:00,44.3,41.6,30.05,North,0,2.0,2.0,90,0.00,,,0.00,WUHU216HW,2013-04-24 11:26:00,
2013-04-24 07:31:00,44.3,41.6,30.05,NE,45,3.1,3.4,90,0.00,,,0.00,WUHU216HW,2013-04-24 11:31:00,
2013-04-24 07:36:00,44.3,41.6,30.05,ENE,68,1.1,3.4,90,0.00,,,0.00,WUHU216HW,2013-04-24 11:36:00,
2013-04-24 07:41:00,44.3,41.6,30.05,NE,45,1.1,1.8,90,0.00,,,0.00,WUHU216HW,2013-04-24 11:41:00,
2013-04-24 07:46:00,44.5,41.8,30.05,NNE,23,1.8,2.5,90,0.00,,,0.00,WUHU216HW,2013-04-24 11:46:00,
2013-04-24 07:51:00,44.6,42.2,30.04,SE,135,1.3,3.8,91,0.00,,,0.00,WUHU216HW,2013-04-24 11:51:00,
2013-04-24 07:56:00,44.8,42.4,30.04,North,0,2.9,3.8,91,0.00,,,0.00,WUHU216HW,2013-04-24 11:56:00,
2013-04-24 08:01:00,44.8,42.1,30.04,East,90,1.1,2.9,90,0.00,,,0.00,WUHU216HW,2013-04-24 12:01:00,
2013-04-24 08:06:00,44.8,42.1,30.04,North,0,0.7,2.9,90,0.00,,,0.00,WUHU216HW,2013-04-24 12:06:00,
2013-04-24 08:11:00,45.0,42.3,30.04,NNW,338,1.1,1.8,90,0.00,,,0.00,WUHU216HW,2013-04-24 12:11:00,
2013-04-24 08:12:00,45.0,42.3,30.04,West,270,0.2,0.2,90,0.00,,,0.00,WUHU216HW,2013-04-24 12:12:00,
2013-04-24 08:16:00,45.0,42.3,30.04,West,270,0.2,1.1,90,0.00,,,0.00,WUHU216HW,2013-04-24 12:16:00,
2013-04-24 08:21:00,45.0,42.3,30.04,West,270,0.2,0.2,90,0.00,,,0.00,WUHU216HW,2013-04-24 12:21:00,
2013-04-24 08:42:00,46.1,42.8,30.05,SSE,158,0.4,0.4,88,0.00,,,0.00,WUHU216HW,2013-04-24 12:42:00,
2013-04-24 08:47:00,46.3,42.9,30.05,SW,225,0.0,0.7,88,0.00,,,0.00,WUHU216HW,2013-04-24 12:47:00,
2013-04-24 08:52:00,46.4,43.1,30.05,West,270,1.8,1.8,88,0.00,,,0.00,WUHU216HW,2013-04-24 12:52:00,
2013-04-24 08:57:00,46.4,43.1,30.05,East,90,0.4,1.8,88,0.00,,,0.00,WUHU216HW,2013-04-24 12:57:00,
2013-04-24 09:02:00,46.8,43.5,30.06,East,90,1.1,1.1,88,0.00,,,0.00,WUHU216HW,2013-04-24 13:02:00,
2013-04-24 09:07:00,47.0,43.7,30.06,North,0,0.4,1.1,88,0.00,,,0.00,WUHU216HW,2013-04-24 13:07:00,
2013-04-24 09:12:00,47.3,44.0,30.06,SSW,203,0.2,1.1,88,0.00,,,0.00,WUHU216HW,2013-04-24 13:12:00,
2013-04-24 09:17:00,47.5,44.2,30.06,NE,45,0.4,0.4,88,0.00,,,0.00,WUHU216HW,2013-04-24 13:17:00,
2013-04-24 09:22:00,47.9,44.2,30.05,WSW,248,1.1,1.1,87,0.00,,,0.00,WUHU216HW,2013-04-24 13:22:00,
2013-04-24 09:27:00,48.1,44.4,30.05,North,0,2.0,2.0,87,0.00,,,0.00,WUHU216HW,2013-04-24 13:27:00,
2013-04-24 09:32:00,48.6,44.9,30.05,NNE,23,1.3,2.0,87,0.00,,,0.00,WUHU216HW,2013-04-24 13:32:00,
2013-04-24 09:37:00,48.6,44.6,30.05,NNE,23,1.1,1.6,86,0.00,,,0.00,WUHU216HW,2013-04-24 13:37:00,
2013-04-24 09:42:00,49.0,44.7,30.05,ESE,113,1.3,1.3,85,0.00,,,0.00,WUHU216HW,2013-04-24 13:42:00,
2013-04-24 10:00:00,50.4,46.3,30.04,NE,45,0.7,0.7,86,0.00,,,0.00,WUHU216HW,2013-04-24 14:00:00,
2013-04-24 10:05:00,50.6,46.2,30.04,ENE,68,0.7,0.7,85,0.00,,,0.00,WUHU216HW,2013-04-24 14:05:00,
2013-04-24 10:10:00,50.8,46.1,30.04,SSW,203,2.5,2.5,84,0.00,,,0.00,WUHU216HW,2013-04-24 14:10:00,
2013-04-24 10:15:00,51.3,46.6,30.04,SE,135,0.9,2.5,84,0.00,,,0.00,WUHU216HW,2013-04-24 14:15:00,
2013-04-24 10:20:00,51.5,46.4,30.04,NE,45,1.8,2.5,83,0.00,,,0.00,WUHU216HW,2013-04-24 14:20:00,
2013-04-24 10:25:00,52.0,47.0,30.03,WSW,248,1.1,1.8,83,0.00,,,0.00,WUHU216HW,2013-04-24 14:25:00,
2013-04-24 10:30:00,52.2,47.2,30.03,NNE,23,1.3,1.3,83,0.00,,,0.00,WUHU216HW,2013-04-24 14:30:00,
2013-04-24 10:35:00,52.6,47.5,30.03,SSW,203,0.4,1.3,83,0.00,,,0.00,WUHU216HW,2013-04-24 14:35:00,
2013-04-24 10:40:00,52.7,47.4,30.03,North,0,1.8,1.8,82,0.00,,,0.00,WUHU216HW,2013-04-24 14:40:00,
2013-04-24 10:45:00,53.5,48.2,30.03,ENE,68,0.4,1.8,82,0.00,,,0.00,WUHU216HW,2013-04-24 14:45:00,
2013-04-24 10:50:00,53.6,48.0,30.03,SSW,203,1.1,1.1,81,0.00,,,0.00,WUHU216HW,2013-04-24 14:50:00,
2013-04-24 10:55:00,54.0,48.3,30.02,NW,315,0.9,1.1,81,0.00,,,0.00,WUHU216HW,2013-04-24 14:55:00,
2013-04-24 11:00:00,54.5,48.9,30.02,SW,225,1.8,2.0,81,0.00,,,0.00,WUHU216HW,2013-04-24 15:00:00,
2013-04-24 11:05:00,55.1,49.0,30.01,South,180,0.9,2.0,80,0.00,,,0.00,WUHU216HW,2013-04-24 15:05:00,
2013-04-24 11:10:00,55.4,49.3,30.01,North,0,0.0,1.8,80,0.00,,,0.00,WUHU216HW,2013-04-24 15:10:00,
2013-04-24 11:15:00,56.0,50.2,30.01,SSW,203,1.1,1.1,81,0.00,,,0.00,WUHU216HW,2013-04-24 15:15:00,
2013-04-24 11:20:00,56.5,50.0,30.01,SW,225,2.5,2.5,79,0.00,,,0.00,WUHU216HW,2013-04-24 15:20:00,
2013-04-24 11:25:00,56.9,50.4,30.01,SSE,158,0.2,2.5,79,0.00,,,0.00,WUHU216HW,2013-04-24 15:25:00,
2013-04-24 11:30:00,57.2,49.3,30.01,North,0,1.3,2.5,75,0.00,,,0.00,WUHU216HW,2013-04-24 15:30:00,
2013-04-24 11:35:00,58.0,50.4,30.01,SE,135,1.6,1.8,76,0.00,,,0.00,WUHU216HW,2013-04-24 15:35:00,
2013-04-24 11:40:00,58.1,49.5,30.01,NW,315,1.6,1.6,73,0.00,,,0.00,WUHU216HW,2013-04-24 15:40:00,
2013-04-24 11:45:00,58.7,50.8,30.01,SSE,158,0.4,1.6,75,0.00,,,0.00,WUHU216HW,2013-04-24 15:45:00,
2013-04-24 11:50:00,58.9,50.9,30.01,SW,225,1.8,1.8,75,0.00,,,0.00,WUHU216HW,2013-04-24 15:50:00,
2013-04-24 11:55:00,59.4,51.1,30.01,North,0,0.7,1.8,74,0.00,,,0.00,WUHU216HW,2013-04-24 15:55:00,
2013-04-24 12:00:00,59.8,51.5,30.01,SSW,203,1.1,1.8,74,0.00,,,0.00,WUHU216HW,2013-04-24 16:00:00,
2013-04-24 12:05:00,60.1,51.5,30.01,South,180,2.0,2.0,73,0.00,,,0.00,WUHU216HW,2013-04-24 16:05:00,
2013-04-24 12:10:00,60.7,52.0,30.00,South,180,3.4,3.4,73,0.00,,,0.00,WUHU216HW,2013-04-24 16:10:00,
2013-04-24 12:15:00,60.8,51.8,30.00,SSW,203,1.3,3.4,72,0.00,,,0.00,WUHU216HW,2013-04-24 16:15:00,
2013-04-24 12:20:00,61.2,51.9,30.00,ESE,113,0.4,3.4,71,0.00,,,0.00,WUHU216HW,2013-04-24 16:20:00,
2013-04-24 12:25:00,61.4,51.9,30.00,SSW,203,1.1,1.3,71,0.00,,,0.00,WUHU216HW,2013-04-24 16:25:00,
2013-04-24 12:30:00,61.6,52.1,30.00,WSW,248,3.6,3.6,71,0.00,,,0.00,WUHU216HW,2013-04-24 16:30:00,
2013-04-24 12:35:00,61.7,51.9,30.00,ENE,68,0.4,3.6,70,0.00,,,0.00,WUHU216HW,2013-04-24 16:35:00,
2013-04-24 12:40:00,61.9,52.5,30.00,South,180,0.9,3.6,71,0.00,,,0.00,WUHU216HW,2013-04-24 16:40:00,
2013-04-24 12:45:00,62.1,52.7,29.99,NW,315,0.4,0.9,71,0.00,,,0.00,WUHU216HW,2013-04-24 16:45:00,
2013-04-24 12:50:00,62.3,52.7,29.99,SSE,158,0.9,0.9,71,0.00,,,0.00,WUHU216HW,2013-04-24 16:50:00,
2013-04-24 12:55:00,62.5,52.2,29.99,NNE,23,0.9,1.1,69,0.00,,,0.00,WUHU216HW,2013-04-24 16:55:00,
2013-04-24 13:00:00,62.8,52.5,29.99,SSW,203,1.8,2.2,69,0.00,,,0.00,WUHU216HW,2013-04-24 17:00:00,
2013-04-24 13:05:00,63.4,52.7,29.98,ESE,113,1.3,2.2,68,0.00,,,0.00,WUHU216HW,2013-04-24 17:05:00,
2013-04-24 13:10:00,63.5,52.8,29.98,SW,225,1.1,2.0,68,0.00,,,0.00,WUHU216HW,2013-04-24 17:10:00,
2013-04-24 13:15:00,63.7,53.4,29.98,East,90,0.4,1.3,69,0.00,,,0.00,WUHU216HW,2013-04-24 17:15:00,
2013-04-24 13:20:00,64.3,53.1,29.98,NNE,23,0.7,2.5,67,0.00,,,0.00,WUHU216HW,2013-04-24 17:20:00,
2013-04-24 13:25:00,64.4,52.8,29.97,SSW,203,1.8,2.5,66,0.00,,,0.00,WUHU216HW,2013-04-24 17:25:00,
2013-04-24 13:30:00,64.4,52.8,29.97,NNW,338,0.2,2.0,66,0.00,,,0.00,WUHU216HW,2013-04-24 17:30:00,
2013-04-24 13:35:00,64.8,53.2,29.96,SSW,203,1.1,1.1,66,0.00,,,0.00,WUHU216HW,2013-04-24 17:35:00,
2013-04-24 13:40:00,65.0,52.9,29.96,SSW,203,1.3,1.3,65,0.00,,,0.00,WUHU216HW,2013-04-24 17:40:00,
2013-04-24 13:45:00,65.3,52.8,29.96,WNW,293,0.4,1.3,64,0.00,,,0.00,WUHU216HW,2013-04-24 17:45:00,
2013-04-24 13:50:00,65.5,53.0,29.96,South,180,0.7,1.6,64,0.00,,,0.00,WUHU216HW,2013-04-24 17:50:00,
2013-04-24 13:55:00,65.7,53.2,29.96,WSW,248,0.4,1.6,64,0.00,,,0.00,WUHU216HW,2013-04-24 17:55:00,
2013-04-24 14:00:00,65.9,52.1,29.95,NNE,23,2.7,2.7,61,0.00,,,0.00,WUHU216HW,2013-04-24 18:00:00,
2013-04-24 14:05:00,65.9,52.9,29.95,North,0,0.4,2.7,63,0.00,,,0.00,WUHU216HW,2013-04-24 18:05:00,
2013-04-24 14:10:00,66.2,53.3,29.95,SSW,203,1.6,2.7,63,0.00,,,0.00,WUHU216HW,2013-04-24 18:10:00,
2013-04-24 14:15:00,66.4,53.0,29.95,SSE,158,1.6,1.6,62,0.00,,,0.00,WUHU216HW,2013-04-24 18:15:00,
2013-04-24 14:20:00,66.8,53.4,29.95,ESE,113,1.8,1.8,62,0.00,,,0.00,WUHU216HW,2013-04-24 18:20:00,
2013-04-24 14:25:00,67.0,53.1,29.94,South,180,1.3,1.8,61,0.00,,,0.00,WUHU216HW,2013-04-24 18:25:00,
2013-04-24 14:30:00,67.1,53.3,29.94,SSW,203,1.1,2.2,61,0.00,,,0.00,WUHU216HW,2013-04-24 18:30:00,
2013-04-24 14:35:00,67.3,53.0,29.94,South,180,1.1,2.2,60,0.00,,,0.00,WUHU216HW,2013-04-24 18:35:00,
2013-04-24 14:40:00,67.7,52.4,29.94,SSW,203,2.5,2.5,58,0.00,,,0.00,WUHU216HW,2013-04-24 18:40:00,
2013-04-24 14:45:00,67.9,52.0,29.94,SSE,158,1.6,2.5,57,0.00,,,0.00,WUHU216HW,2013-04-24 18:45:00,
2013-04-24 14:50:00,68.0,51.7,29.93,South,180,0.9,2.5,56,0.00,,,0.00,WUHU216HW,2013-04-24 18:50:00,
2013-04-24 14:55:00,68.4,52.0,29.93,SSW,203,0.4,0.9,56,0.00,,,0.00,WUHU216HW,2013-04-24 18:55:00,
2013-04-24 15:00:00,68.4,52.0,29.93,SSW,203,0.4,0.9,56,0.00,,,0.00,WUHU216HW,2013-04-24 19:00:00,
2013-04-24 15:05:00,68.8,52.4,29.93,WNW,293,1.8,1.8,56,0.00,,,0.00,WUHU216HW,2013-04-24 19:05:00,
2013-04-24 15:10:00,69.1,52.2,29.92,South,180,2.0,2.0,55,0.00,,,0.00,WUHU216HW,2013-04-24 19:10:00,
2013-04-24 15:15:00,69.3,51.9,29.92,SSW,203,0.9,2.0,54,0.00,,,0.00,WUHU216HW,2013-04-24 19:15:00,
2013-04-24 15:20:00,69.5,51.1,29.92,SSE,158,0.7,2.5,52,0.00,,,0.00,WUHU216HW,2013-04-24 19:20:00,
2013-04-24 15:25:00,69.7,51.2,29.91,SSE,158,1.1,2.5,52,0.00,,,0.00,WUHU216HW,2013-04-24 19:25:00,
2013-04-24 15:30:00,69.8,51.0,29.91,SSW,203,0.9,1.1,51,0.00,,,0.00,WUHU216HW,2013-04-24 19:30:00,
2013-04-24 15:35:00,70.2,50.8,29.92,SSW,203,2.9,2.9,50,0.00,,,0.00,WUHU216HW,2013-04-24 19:35:00,
2013-04-24 15:40:00,70.4,50.3,29.92,South,180,1.8,2.9,49,0.00,,,0.00,WUHU216HW,2013-04-24 19:40:00,
2013-04-24 15:45:00,70.6,49.9,29.92,SW,225,2.5,2.5,48,0.00,,,0.00,WUHU216HW,2013-04-24 19:45:00,
2013-04-24 15:50:00,70.7,49.4,29.92,North,0,0.0,2.5,47,0.00,,,0.00,WUHU216HW,2013-04-24 19:50:00,
2013-04-24 15:55:00,71.1,49.8,29.92,SSW,203,2.5,2.5,47,0.00,,,0.00,WUHU216HW,2013-04-24 19:55:00,
2013-04-24 16:00:00,71.3,50.0,29.92,SSW,203,2.2,2.5,47,0.00,,,0.00,WUHU216HW,2013-04-24 20:00:00,
2013-04-24 16:05:00,71.3,49.3,29.92,SSW,203,1.6,2.5,46,0.00,,,0.00,WUHU216HW,2013-04-24 20:05:00,
2013-04-24 16:10:00,71.6,49.7,29.92,SW,225,1.3,2.2,46,0.00,,,0.00,WUHU216HW,2013-04-24 20:10:00,
2013-04-24 16:15:00,71.6,49.1,29.92,South,180,2.7,2.7,45,0.00,,,0.00,WUHU216HW,2013-04-24 20:15:00,
2013-04-24 16:19:00,71.8,49.2,29.92,South,180,1.1,2.7,45,0.00,,,0.00,WUHU216HW,2013-04-24 20:19:00,
2013-04-24 16:24:00,71.8,48.6,29.92,SW,225,1.3,1.3,44,0.00,,,0.00,WUHU216HW,2013-04-24 20:24:00,
2013-04-24 16:29:00,72.0,48.2,29.92,SE,135,0.9,1.3,43,0.00,,,0.00,WUHU216HW,2013-04-24 20:29:00,
2013-04-24 16:34:00,72.5,48.1,29.92,SSE,158,1.8,3.4,42,0.00,,,0.00,WUHU216HW,2013-04-24 20:34:00,
2013-04-24 16:39:00,72.7,48.9,29.92,SSW,203,2.9,3.4,43,0.00,,,0.00,WUHU216HW,2013-04-24 20:39:00,
2013-04-24 16:44:00,72.5,49.2,29.92,East,90,1.8,2.9,44,0.00,,,0.00,WUHU216HW,2013-04-24 20:44:00,
2013-04-24 16:49:00,72.5,48.1,29.92,East,90,1.1,2.9,42,0.00,,,0.00,WUHU216HW,2013-04-24 20:49:00,
2013-04-24 16:54:00,72.5,48.7,29.92,South,180,1.1,2.7,43,0.00,,,0.00,WUHU216HW,2013-04-24 20:54:00,
2013-04-24 16:59:00,72.4,48.5,29.92,South,180,2.9,2.9,43,0.00,,,0.00,WUHU216HW,2013-04-24 20:59:00,
2013-04-24 17:04:00,72.4,49.2,29.91,WSW,248,3.6,3.6,44,0.00,,,0.00,WUHU216HW,2013-04-24 21:04:00,
2013-04-24 17:09:00,72.4,49.2,29.92,SSW,203,1.8,3.6,44,0.00,,,0.00,WUHU216HW,2013-04-24 21:09:00,
2013-04-24 17:14:00,72.2,49.5,29.91,South,180,2.2,3.6,45,0.00,,,0.00,WUHU216HW,2013-04-24 21:14:00,
2013-04-24 17:19:00,72.0,48.8,29.91,SSW,203,2.5,2.9,44,0.00,,,0.00,WUHU216HW,2013-04-24 21:19:00,
2013-04-24 17:24:00,72.0,48.8,29.91,ESE,113,2.7,2.7,44,0.00,,,0.00,WUHU216HW,2013-04-24 21:24:00,
2013-04-24 17:29:00,71.8,49.2,29.92,SW,225,0.9,2.7,45,0.00,,,0.00,WUHU216HW,2013-04-24 21:29:00,
2013-04-24 17:34:00,71.6,49.1,29.91,SSW,203,1.8,2.7,45,0.00,,,0.00,WUHU216HW,2013-04-24 21:34:00,
2013-04-24 17:39:00,71.3,48.7,29.91,South,180,2.9,2.9,45,0.00,,,0.00,WUHU216HW,2013-04-24 21:39:00,
2013-04-24 17:44:00,70.9,48.4,29.91,SW,225,1.3,2.9,45,0.00,,,0.00,WUHU216HW,2013-04-24 21:44:00,
2013-04-24 17:49:00,70.9,49.0,29.91,WNW,293,1.8,2.9,46,0.00,,,0.00,WUHU216HW,2013-04-24 21:49:00,
2013-04-24 17:54:00,70.6,48.1,29.91,SW,225,2.5,3.8,45,0.00,,,0.00,WUHU216HW,2013-04-24 21:54:00,
2013-04-24 17:59:00,70.6,48.7,29.91,South,180,2.5,3.8,46,0.00,,,0.00,WUHU216HW,2013-04-24 21:59:00,
2013-04-24 18:04:00,70.4,48.5,29.91,NNW,338,3.6,3.6,46,0.00,,,0.00,WUHU216HW,2013-04-24 22:04:00,
2013-04-24 18:09:00,69.8,47.4,29.92,SSE,158,3.4,3.6,45,0.00,,,0.00,WUHU216HW,2013-04-24 22:09:00,
2013-04-24 18:14:00,69.8,47.4,29.92,SSE,158,3.4,3.4,45,0.00,,,0.00,WUHU216HW,2013-04-24 22:14:00,
2013-04-24 18:39:00,68.2,46.0,29.92,SW,225,3.4,3.4,45,0.00,,,0.00,WUHU216HW,2013-04-24 22:39:00,
2013-04-24 18:44:00,67.9,46.3,29.92,SSW,203,0.9,3.4,46,0.00,,,0.00,WUHU216HW,2013-04-24 22:44:00,
2013-04-24 18:49:00,67.7,46.1,29.92,SSW,203,3.8,3.8,46,0.00,,,0.00,WUHU216HW,2013-04-24 22:49:00,
2013-04-24 18:54:00,67.7,46.1,29.92,South,180,1.3,3.8,46,0.00,,,0.00,WUHU216HW,2013-04-24 22:54:00,
2013-04-24 18:59:00,67.3,45.7,29.92,SSE,158,0.9,3.8,46,0.00,,,0.00,WUHU216HW,2013-04-24 22:59:00,
2013-04-24 19:04:00,67.1,46.2,29.92,SSE,158,2.5,2.5,47,0.00,,,0.00,WUHU216HW,2013-04-24 23:04:00,
2013-04-24 19:09:00,67.1,46.2,29.92,SSW,203,1.3,2.5,47,0.00,,,0.00,WUHU216HW,2013-04-24 23:09:00,
2013-04-24 19:14:00,66.6,45.7,29.93,SSE,158,3.1,3.1,47,0.00,,,0.00,WUHU216HW,2013-04-24 23:14:00,
2013-04-24 19:19:00,66.2,46.0,29.93,SE,135,3.6,3.6,48,0.00,,,0.00,WUHU216HW,2013-04-24 23:19:00,
2013-04-24 19:24:00,65.9,45.6,29.93,South,180,1.1,3.6,48,0.00,,,0.00,WUHU216HW,2013-04-24 23:24:00,
2013-04-24 19:29:00,65.7,46.0,29.93,SSW,203,1.3,3.6,49,0.00,,,0.00,WUHU216HW,2013-04-24 23:29:00,
2013-04-24 19:34:00,65.2,46.1,29.93,ESE,113,4.7,4.7,50,0.00,,,0.00,WUHU216HW,2013-04-24 23:34:00,
2013-04-24 19:39:00,64.8,46.2,29.94,SSE,158,1.8,4.7,51,0.00,,,0.00,WUHU216HW,2013-04-24 23:39:00,
2013-04-24 19:44:00,64.4,45.8,29.94,SSW,203,2.0,4.7,51,0.00,,,0.00,WUHU216HW,2013-04-24 23:44:00,
2013-04-24 19:49:00,63.9,45.8,29.94,ESE,113,4.0,4.0,52,0.00,,,0.00,WUHU216HW,2013-04-24 23:49:00,
2013-04-24 19:54:00,63.2,45.7,29.94,SW,225,5.1,5.1,53,0.00,,,0.00,WUHU216HW,2013-04-24 23:54:00,
2013-04-24 19:59:00,63.0,46.0,29.94,West,270,3.8,5.1,54,0.00,,,0.00,WUHU216HW,2013-04-24 23:59:00,
2013-04-24 20:04:00,62.6,46.2,29.94,East,90,1.1,5.1,55,0.00,,,0.00,WUHU216HW,2013-04-25 00:04:00,
2013-04-24 20:09:00,62.1,46.2,29.94,SSE,158,5.1,5.1,56,0.00,,,0.00,WUHU216HW,2013-04-25 00:09:00,
2013-04-24 20:14:00,61.6,45.7,29.94,SSE,158,1.8,5.1,56,0.00,,,0.00,WUHU216HW,2013-04-25 00:14:00,
2013-04-24 20:19:00,61.2,45.8,29.95,SSE,158,2.7,5.1,57,0.00,,,0.00,WUHU216HW,2013-04-25 00:19:00,
2013-04-24 20:24:00,60.8,45.6,29.95,South,180,2.2,2.7,57,0.00,,,0.00,WUHU216HW,2013-04-25 00:24:00,
2013-04-24 20:29:00,60.3,45.5,29.95,WSW,248,2.2,2.7,58,0.00,,,0.00,WUHU216HW,2013-04-25 00:29:00,
2013-04-24 20:34:00,60.1,45.8,29.95,SSW,203,1.3,4.0,59,0.00,,,0.00,WUHU216HW,2013-04-25 00:34:00,
2013-04-24 20:39:00,59.8,45.9,29.95,SW,225,3.4,4.0,60,0.00,,,0.00,WUHU216HW,2013-04-25 00:39:00,
2013-04-24 20:44:00,59.6,45.7,29.95,SSE,158,1.8,3.4,60,0.00,,,0.00,WUHU216HW,2013-04-25 00:44:00,
2013-04-24 20:49:00,59.6,46.2,29.96,SW,225,2.5,3.4,61,0.00,,,0.00,WUHU216HW,2013-04-25 00:49:00,
2013-04-24 20:54:00,59.4,46.0,29.96,SE,135,1.3,2.5,61,0.00,,,0.00,WUHU216HW,2013-04-25 00:54:00,
2013-04-24 20:59:00,59.2,45.8,29.96,NW,315,2.5,2.5,61,0.00,,,0.00,WUHU216HW,2013-04-25 00:59:00,
2013-04-24 21:04:00,59.2,45.8,29.95,South,180,3.6,3.6,61,0.00,,,0.00,WUHU216HW,2013-04-25 01:04:00,
2013-04-24 21:09:00,59.0,45.6,29.96,SSE,158,2.2,3.6,61,0.00,,,0.00,WUHU216HW,2013-04-25 01:09:00,
2013-04-24 21:14:00,58.7,45.7,29.96,SSE,158,1.8,3.6,62,0.00,,,0.00,WUHU216HW,2013-04-25 01:14:00,
2013-04-24 21:19:00,58.5,45.6,29.96,SSE,158,0.4,3.4,62,0.00,,,0.00,WUHU216HW,2013-04-25 01:19:00,
2013-04-24 21:24:00,58.5,45.6,29.97,SW,225,0.9,3.4,62,0.00,,,0.00,WUHU216HW,2013-04-25 01:24:00,
2013-04-24 21:29:00,58.3,45.4,29.97,SSW,203,1.8,1.8,62,0.00,,,0.00,WUHU216HW,2013-04-25 01:29:00,
2013-04-24 21:34:00,58.0,45.5,29.97,SW,225,2.0,2.0,63,0.00,,,0.00,WUHU216HW,2013-04-25 01:34:00,
2013-04-24 21:39:00,57.6,45.5,29.97,SW,225,1.1,2.2,64,0.00,,,0.00,WUHU216HW,2013-04-25 01:39:00,
2013-04-24 21:44:00,57.6,45.5,29.98,ESE,113,0.4,2.2,64,0.00,,,0.00,WUHU216HW,2013-04-25 01:44:00,
2013-04-24 21:49:00,56.9,45.2,29.98,SSW,203,0.9,1.6,65,0.00,,,0.00,WUHU216HW,2013-04-25 01:49:00,
2013-04-24 21:54:00,56.9,45.6,29.98,South,180,0.9,1.6,66,0.00,,,0.00,WUHU216HW,2013-04-25 01:54:00,
2013-04-24 21:59:00,56.5,45.3,29.98,SSW,203,2.5,2.5,66,0.00,,,0.00,WUHU216HW,2013-04-25 01:59:00,
2013-04-24 22:04:00,56.0,45.2,29.98,SW,225,3.8,3.8,67,0.00,,,0.00,WUHU216HW,2013-04-25 02:04:00,
2013-04-24 22:09:00,55.8,45.4,29.98,SSW,203,2.0,3.8,68,0.00,,,0.00,WUHU216HW,2013-04-25 02:09:00,
2013-04-24 22:14:00,55.6,45.3,29.98,South,180,2.0,3.8,68,0.00,,,0.00,WUHU216HW,2013-04-25 02:14:00,
2013-04-24 22:19:00,55.4,45.5,29.98,ESE,113,3.6,3.6,69,0.00,,,0.00,WUHU216HW,2013-04-25 02:19:00,
2013-04-24 22:24:00,55.1,45.5,29.98,SSW,203,2.5,3.6,70,0.00,,,0.00,WUHU216HW,2013-04-25 02:24:00,
2013-04-24 22:29:00,54.7,45.2,29.98,SSW,203,4.3,4.3,70,0.00,,,0.00,WUHU216HW,2013-04-25 02:29:00,
2013-04-24 22:34:00,54.5,45.4,29.98,SSW,203,1.1,4.3,71,0.00,,,0.00,WUHU216HW,2013-04-25 02:34:00,
2013-04-24 22:39:00,54.4,45.2,29.97,SSE,158,2.5,4.3,71,0.00,,,0.00,WUHU216HW,2013-04-25 02:39:00,
2013-04-24 22:44:00,53.8,45.4,29.97,SSW,203,2.0,2.9,73,0.00,,,0.00,WUHU216HW,2013-04-25 02:44:00,
2013-04-24 22:49:00,53.6,45.2,29.97,WSW,248,4.5,4.5,73,0.00,,,0.00,WUHU216HW,2013-04-25 02:49:00,
2013-04-24 22:54:00,53.5,45.0,29.97,SSW,203,1.8,4.5,73,0.00,,,0.00,WUHU216HW,2013-04-25 02:54:00,
2013-04-24 22:59:00,53.3,44.8,29.97,SSW,203,1.6,4.5,73,0.00,,,0.00,WUHU216HW,2013-04-25 02:59:00,
2013-04-24 23:00:00,53.1,44.6,29.97,South,180,2.0,2.0,73,0.00,,,0.00,WUHU216HW,2013-04-25 03:00:00,
2013-04-24 23:04:00,53.1,44.6,29.97,South,180,2.0,2.0,73,0.00,,,0.00,WUHU216HW,2013-04-25 03:04:00,
2013-04-24 23:09:00,53.1,44.6,29.97,South,180,2.0,2.0,73,0.00,,,0.00,WUHU216HW,2013-04-25 03:09:00,
2013-04-24 23:30:00,52.2,44.6,29.97,South,180,1.3,1.3,75,0.00,,,0.00,WUHU216HW,2013-04-25 03:30:00,
2013-04-24 23:35:00,52.2,44.9,29.97,East,90,2.7,2.7,76,0.00,,,0.00,WUHU216HW,2013-04-25 03:35:00,
2013-04-24 23:40:00,52.0,44.7,29.96,South,180,1.8,2.7,76,0.00,,,0.00,WUHU216HW,2013-04-25 03:40:00,
2013-04-24 23:45:00,51.8,44.9,29.97,SSE,158,2.5,2.7,77,0.00,,,0.00,WUHU216HW,2013-04-25 03:45:00,
2013-04-24 23:50:00,51.8,45.2,29.97,South,180,2.9,3.4,78,0.00,,,0.00,WUHU216HW,2013-04-25 03:50:00,
2013-04-24 23:55:00,51.7,45.0,29.97,South,180,1.3,3.4,78,0.00,,,0.00,WUHU216HW,2013-04-25 03:55:00,